HST (20580 NORAD) Tracking and Keplerian Element Data

This shows tracking and keplerian element data for the satellite.

Feedback or suggestion? Click here.




ElementValue
Catalog20580
NameHST
Epoch Orbit65329
Epoch Day12.9750966
Epoch Year2024
RAAN309.8883
Inclination28.47
Eccentricity0.0002586
Argument of Perigee132.9037
Mean Anonmoly297.9767
Mean Motion15.15514497
Decay Rate7.01E-05
L11 20580U 90037B 24012.97509660 .00007010 00000+0 35035-3 0 9991
L22 20580 28.4700 309.8883 0002586 132.9037 297.9767 15.15514497653297



Live tracking and technical data element details for HST (NORAD 20580). HST can be tracked NOW for your location showing map with azimuth and elevation plus other details from your city location.







IsCatalogInMostPopularTable: catalog: 20580, numindb: 1419
Update: records affected: 1



GetName: 20580 HST

Hit Count: updated at: Fri, 01 Mar 2024 15:19:54 GMT